DAL158 RKSI-KDTW

Flight info

Callsign DAL158
Flight time N/A
Altitude 35000
Route EGOBA2Y EGOBA Y697 LANAT Y51 SAMON Y142 GTC/N0487F370 Y512 ADNAP OTR5 KALNA DCT KALIG DCT CUTEE DCT CARTO DCT LYYLE/N0493F390 DCT ADK DCT DUT DCT 55N160W DCT CJAYY DCT 58N140W DCT SSR/N0484F410 DCT 58N130W 56N120W 53N110W 50N100W DCT DLH DCT KP03K DCT GRB DCT HOOTA RKCTY2
Aircraft A359/H-SDE2E3GHIJ3J4J5LM1ORWXY/LB1D1

Departure

Time 2026-05-08 01:28
Airport Incheon International Airport (RKSI)

Arrival

Time N/A
Airport Detroit Metropolitan Wayne County Airport (KDTW)
Time Latitude Longitude Altitude Speed Heading
2026-05-07 23:56 37.46749 126.43784 39 ft 0 kts 354°
2026-05-08 01:13 37.46727 126.43788 37 ft 4 kts 353°
2026-05-08 01:13 37.46701 126.43790 38 ft 4 kts
2026-05-08 01:13 37.46680 126.43784 36 ft 4 kts 22°
2026-05-08 01:14 37.46657 126.43770 38 ft 4 kts 39°
2026-05-08 01:14 37.46639 126.43747 36 ft 4 kts 53°
2026-05-08 01:14 37.46624 126.43720 37 ft 3 kts 55°
2026-05-08 01:14 37.46622 126.43716 37 ft 0 kts 54°
2026-05-08 01:18 37.46622 126.43717 37 ft 1 kts 54°
2026-05-08 01:18 37.46636 126.43742 38 ft 7 kts 54°
2026-05-08 01:18 37.46651 126.43808 39 ft 8 kts 102°
2026-05-08 01:19 37.46610 126.43861 39 ft 10 kts 141°
2026-05-08 01:19 37.46551 126.43915 39 ft 11 kts 144°
2026-05-08 01:19 37.46481 126.43976 39 ft 13 kts 146°
2026-05-08 01:19 37.46403 126.44044 39 ft 13 kts 144°
2026-05-08 01:20 37.46324 126.44072 39 ft 12 kts 205°
2026-05-08 01:20 37.46263 126.43991 39 ft 13 kts 234°
2026-05-08 01:20 37.46206 126.43891 39 ft 15 kts 234°
2026-05-08 01:20 37.46146 126.43784 39 ft 15 kts 234°
2026-05-08 01:21 37.46081 126.43670 39 ft 17 kts 234°
2026-05-08 01:21 37.46013 126.43549 39 ft 17 kts 234°
2026-05-08 01:21 37.45942 126.43423 39 ft 16 kts 234°
2026-05-08 01:21 37.45886 126.43323 39 ft 10 kts 234°
2026-05-08 01:22 37.45827 126.43285 39 ft 10 kts 177°
2026-05-08 01:22 37.45760 126.43329 39 ft 12 kts 144°
2026-05-08 01:22 37.45687 126.43394 39 ft 14 kts 144°
2026-05-08 01:22 37.45604 126.43469 37 ft 16 kts 144°
2026-05-08 01:23 37.45511 126.43552 39 ft 17 kts 144°
2026-05-08 01:23 37.45408 126.43644 39 ft 19 kts 144°
2026-05-08 01:23 37.45296 126.43744 39 ft 21 kts 144°
2026-05-08 01:23 37.45174 126.43853 39 ft 22 kts 144°
2026-05-08 01:24 37.45047 126.43966 39 ft 23 kts 144°
2026-05-08 01:24 37.44909 126.44089 39 ft 25 kts 144°
2026-05-08 01:24 37.44768 126.44214 39 ft 26 kts 145°
2026-05-08 01:24 37.44652 126.44317 39 ft 15 kts 144°
2026-05-08 01:25 37.44568 126.44392 39 ft 12 kts 144°
2026-05-08 01:25 37.44493 126.44413 39 ft 11 kts 212°
2026-05-08 01:25 37.44442 126.44330 39 ft 13 kts 235°
2026-05-08 01:25 37.44391 126.44238 39 ft 13 kts 234°
2026-05-08 01:26 37.44377 126.44214 39 ft 0 kts 234°
2026-05-08 01:26 37.44366 126.44195 39 ft 4 kts 234°
2026-05-08 01:26 37.44364 126.44168 39 ft 2 kts 285°
2026-05-08 01:26 37.44379 126.44144 39 ft 5 kts 313°
2026-05-08 01:27 37.44385 126.44137 39 ft 0 kts 321°
2026-05-08 01:27 37.44415 126.44108 39 ft 21 kts 322°
2026-05-08 01:27 37.44721 126.43839 39 ft 85 kts 324°
2026-05-08 01:27 37.45363 126.43266 38 ft 140 kts 325°
2026-05-08 01:28 37.46267 126.42450 277 ft 167 kts 322°
2026-05-08 01:28 37.47189 126.41626 1132 ft 158 kts 322°
2026-05-08 01:28 37.48065 126.40776 1800 ft 168 kts 317°
2026-05-08 01:28 37.48847 126.39588 2288 ft 182 kts 307°
2026-05-08 01:29 37.49620 126.38247 2809 ft 195 kts 308°
2026-05-08 01:29 37.50297 126.36731 3419 ft 205 kts 292°
2026-05-08 01:29 37.50517 126.34940 3921 ft 222 kts 277°
2026-05-08 01:29 37.50545 126.32955 4511 ft 231 kts 276°
2026-05-08 01:30 37.50564 126.30911 5223 ft 235 kts 276°
2026-05-08 01:30 37.50595 126.28850 5987 ft 237 kts 277°
2026-05-08 01:30 37.50635 126.26753 6733 ft 241 kts 277°
2026-05-08 01:30 37.50680 126.24641 7512 ft 243 kts 277°
2026-05-08 01:31 37.50722 126.22504 8358 ft 245 kts 277°
2026-05-08 01:31 37.50528 126.20347 9197 ft 256 kts 262°
2026-05-08 01:31 37.49663 126.18310 9999 ft 277 kts 238°
2026-05-08 01:31 37.48051 126.16786 10503 ft 309 kts 213°
2026-05-08 01:32 37.45964 126.15750 10859 ft 333 kts 207°
2026-05-08 01:32 37.43673 126.14887 11187 ft 358 kts 198°
2026-05-08 01:32 37.41081 126.14891 11498 ft 390 kts 173°
2026-05-08 01:32 37.38506 126.16184 11947 ft 410 kts 149°
2026-05-08 01:33 37.36371 126.18614 12573 ft 419 kts 128°
2026-05-08 01:33 37.34643 126.21551 13216 ft 424 kts 125°
2026-05-08 01:33 37.33197 126.24639 13806 ft 429 kts 111°
2026-05-08 01:33 37.32460 126.28302 14368 ft 427 kts 90°
2026-05-08 01:34 37.32399 126.32036 14921 ft 429 kts 84°
2026-05-08 01:34 37.32440 126.35805 15459 ft 435 kts 84°
2026-05-08 01:34 37.32460 126.39640 16019 ft 441 kts 85°
2026-05-08 01:34 37.32455 126.43509 16571 ft 446 kts 86°
2026-05-08 01:35 37.32435 126.47439 17135 ft 452 kts 86°
2026-05-08 01:35 37.32405 126.51413 17701 ft 458 kts 86°
2026-05-08 01:35 37.32364 126.55442 18281 ft 464 kts 86°
2026-05-08 01:35 37.32319 126.59459 18804 ft 469 kts 87°
2026-05-08 01:36 37.32274 126.63306 19342 ft 472 kts 87°
2026-05-08 01:36 37.32224 126.67415 19917 ft 476 kts 87°
2026-05-08 01:36 37.32173 126.71563 20462 ft 480 kts 88°
2026-05-08 01:36 37.32126 126.75833 21020 ft 484 kts 88°
2026-05-08 01:37 37.32079 126.80025 21562 ft 489 kts 88°
2026-05-08 01:37 37.32028 126.84312 22120 ft 493 kts 88°
2026-05-08 01:37 37.31976 126.88630 22682 ft 497 kts 88°
2026-05-08 01:37 37.31922 126.92995 23230 ft 501 kts 88°
2026-05-08 01:38 37.31952 126.97389 23735 ft 504 kts 83°
2026-05-08 01:38 37.32579 127.01693 24125 ft 501 kts 67°
2026-05-08 01:38 37.33977 127.05670 24535 ft 496 kts 55°
2026-05-08 01:38 37.35691 127.09438 24952 ft 499 kts 53°
2026-05-08 01:39 37.37451 127.13222 25358 ft 504 kts 53°
2026-05-08 01:39 37.39221 127.17052 25769 ft 509 kts 54°
2026-05-08 01:39 37.40999 127.20921 26144 ft 514 kts 54°
2026-05-08 01:39 37.42790 127.24836 26574 ft 517 kts 54°
2026-05-08 01:40 37.44586 127.28773 26957 ft 522 kts 54°
2026-05-08 01:40 37.46402 127.32760 27345 ft 527 kts 54°
2026-05-08 01:40 37.48122 127.36871 27715 ft 537 kts 62°
2026-05-08 01:40 37.49327 127.41361 28084 ft 547 kts 72°
2026-05-08 01:41 37.50212 127.46057 28443 ft 553 kts 75°
2026-05-08 01:41 37.50987 127.50818 28790 ft 558 kts 76°
2026-05-08 01:41 37.51719 127.55640 29135 ft 563 kts 77°
2026-05-08 01:41 37.52448 127.60511 29436 ft 568 kts 77°
2026-05-08 01:42 37.53188 127.65412 29802 ft 571 kts 77°
2026-05-08 01:42 37.53947 127.70340 30118 ft 575 kts 77°
2026-05-08 01:42 37.54722 127.75304 30411 ft 578 kts 77°
2026-05-08 01:42 37.55504 127.80281 30675 ft 581 kts 77°
2026-05-08 01:43 37.56294 127.85291 30939 ft 584 kts 77°
2026-05-08 01:43 37.57085 127.90313 31245 ft 585 kts 77°
2026-05-08 01:43 37.57874 127.95340 31648 ft 584 kts 77°
2026-05-08 01:43 37.58659 128.00355 32046 ft 583 kts 78°
2026-05-08 01:44 37.59439 128.05363 32432 ft 582 kts 78°
2026-05-08 01:44 37.60218 128.10379 32830 ft 582 kts 78°
2026-05-08 01:44 37.60981 128.15311 33205 ft 581 kts 78°
2026-05-08 01:44 37.61753 128.20306 33598 ft 580 kts 78°
2026-05-08 01:45 37.62520 128.25291 33974 ft 579 kts 78°
2026-05-08 01:45 37.63287 128.30291 34259 ft 579 kts 78°
2026-05-08 01:45 37.64049 128.35267 34560 ft 578 kts 78°
2026-05-08 01:45 37.64807 128.40241 34826 ft 578 kts 79°
2026-05-08 01:46 37.65565 128.45224 34907 ft 580 kts 79°
2026-05-08 01:46 37.67082 128.55241 34906 ft 582 kts 79°
2026-05-08 01:47 37.68582 128.65296 34889 ft 583 kts 81°
2026-05-08 01:47 37.68912 128.70387 34886 ft 582 kts 92°
2026-05-08 01:47 37.68542 128.75452 34880 ft 577 kts 105°
2026-05-08 01:48 37.65699 128.84714 34880 ft 562 kts 125°
2026-05-08 01:48 37.63753 128.88980 34877 ft 561 kts 128°
2026-05-08 01:48 37.59669 128.97364 34873 ft 561 kts 129°
2026-05-08 01:49 37.55580 129.05683 34871 ft 562 kts 128°
2026-05-08 01:49 37.51502 129.14079 34869 ft 562 kts 128°
2026-05-08 01:50 37.47441 129.22481 34871 ft 562 kts 128°
2026-05-08 01:50 37.43378 129.30878 34873 ft 562 kts 128°
2026-05-08 01:51 37.39307 129.39281 34875 ft 563 kts 129°
2026-05-08 01:51 37.35213 129.47688 34873 ft 564 kts 129°
2026-05-08 01:52 37.31115 129.56085 34877 ft 564 kts 129°
2026-05-08 01:52 37.27013 129.64473 34877 ft 564 kts 129°
2026-05-08 01:53 37.23601 129.71436 34882 ft 564 kts 129°
2026-05-08 01:53 37.19490 129.79807 34887 ft 564 kts 130°
2026-05-08 01:54 37.15368 129.88185 34891 ft 564 kts 130°
2026-05-08 01:54 37.11242 129.96544 34887 ft 565 kts 130°
2026-05-08 01:55 37.07095 130.04913 34887 ft 566 kts 131°
2026-05-08 01:55 37.02939 130.13282 34888 ft 567 kts 131°
2026-05-08 01:56 36.98769 130.21662 34887 ft 568 kts 131°
2026-05-08 01:56 36.94586 130.30051 34889 ft 569 kts 131°
2026-05-08 01:57 36.90399 130.38431 34886 ft 569 kts 132°
2026-05-08 01:57 36.86198 130.46813 34895 ft 569 kts 132°
2026-05-08 01:58 36.81989 130.55189 34879 ft 569 kts 132°
2026-05-08 01:58 36.77779 130.63548 34883 ft 568 kts 133°
2026-05-08 01:59 36.73572 130.71890 34884 ft 568 kts 133°
2026-05-08 01:59 36.69362 130.80210 34885 ft 567 kts 133°
2026-05-08 02:00 36.65151 130.88501 34887 ft 566 kts 133°
2026-05-08 02:00 36.60948 130.96761 34885 ft 564 kts 133°
2026-05-08 02:01 36.56746 131.05001 34887 ft 563 kts 133°
2026-05-08 02:01 36.52550 131.13209 34882 ft 562 kts 133°
2026-05-08 02:02 36.48391 131.21328 34881 ft 560 kts 133°
2026-05-08 02:02 36.44206 131.29477 34886 ft 558 kts 133°
2026-05-08 02:03 36.40072 131.37627 34877 ft 562 kts 129°
2026-05-08 02:03 36.38407 131.42068 34900 ft 575 kts 118°
2026-05-08 02:03 36.37370 131.46915 34882 ft 588 kts 105°
2026-05-08 02:04 36.36713 131.57092 34884 ft 594 kts 97°
2026-05-08 02:04 36.36471 131.67331 34881 ft 594 kts 96°
2026-05-08 02:05 36.36239 131.77564 34884 ft 592 kts 97°
2026-05-08 02:05 36.35934 131.87758 34875 ft 591 kts 97°
2026-05-08 02:06 36.35588 131.97924 34877 ft 589 kts 97°
2026-05-08 02:06 36.35231 132.08063 34873 ft 588 kts 97°
2026-05-08 02:07 36.34871 132.18184 34871 ft 587 kts 98°
2026-05-08 02:07 36.34505 132.28280 34871 ft 585 kts 98°
2026-05-08 02:08 36.34132 132.38356 34867 ft 584 kts 98°
2026-05-08 02:08 36.33751 132.48393 34869 ft 582 kts 98°
2026-05-08 02:09 36.33363 132.58423 34866 ft 581 kts 98°
2026-05-08 02:09 36.32967 132.68420 34864 ft 580 kts 98°
2026-05-08 02:10 36.32563 132.78399 34862 ft 578 kts 98°
2026-05-08 02:10 36.32154 132.88333 34857 ft 576 kts 98°
2026-05-08 02:11 36.31737 132.98240 34859 ft 575 kts 98°
2026-05-08 02:11 36.31312 133.08125 34857 ft 574 kts 98°
2026-05-08 02:12 36.30880 133.17998 34862 ft 573 kts 98°
2026-05-08 02:12 36.30442 133.27842 34855 ft 572 kts 98°
2026-05-08 02:13 36.29994 133.37675 34857 ft 571 kts 98°
2026-05-08 02:13 36.29540 133.47485 34852 ft 570 kts 98°
2026-05-08 02:14 36.29083 133.57221 34850 ft 569 kts 98°
2026-05-08 02:14 36.28614 133.67019 34845 ft 569 kts 99°
2026-05-08 02:15 36.28139 133.76799 34847 ft 568 kts 99°
2026-05-08 02:15 36.27660 133.86563 34841 ft 568 kts 99°
2026-05-08 02:16 36.27165 133.96327 34839 ft 568 kts 99°
2026-05-08 02:16 36.26663 134.06091 34841 ft 567 kts 99°
2026-05-08 02:17 36.26160 134.15842 34842 ft 567 kts 99°
2026-05-08 02:17 36.25643 134.25592 34838 ft 567 kts 99°
2026-05-08 02:18 36.25118 134.35334 34838 ft 566 kts 99°
2026-05-08 02:18 36.24689 134.45089 34836 ft 570 kts 93°
2026-05-08 02:19 36.25083 134.49996 34836 ft 576 kts 82°
2026-05-08 02:19 36.26192 134.54783 34835 ft 580 kts 69°
2026-05-08 02:19 36.29538 134.63884 34833 ft 581 kts 64°
2026-05-08 02:20 36.33177 134.72841 34826 ft 582 kts 63°
2026-05-08 02:20 36.36811 134.81793 34838 ft 581 kts 64°
2026-05-08 02:21 36.40396 134.90793 34831 ft 581 kts 64°
2026-05-08 02:21 36.43948 134.99808 34827 ft 581 kts 64°
2026-05-08 02:22 36.47495 135.08841 34826 ft 581 kts 65°
2026-05-08 02:22 36.51033 135.17866 34827 ft 581 kts 65°
2026-05-08 02:23 36.54565 135.26899 34829 ft 581 kts 65°
2026-05-08 02:23 36.58092 135.35942 34816 ft 581 kts 65°
2026-05-08 02:24 36.61607 135.44981 34813 ft 580 kts 65°
2026-05-08 02:24 36.65116 135.54032 34814 ft 580 kts 65°
2026-05-08 02:25 36.68614 135.63079 34815 ft 580 kts 65°
2026-05-08 02:25 36.72105 135.72135 34819 ft 579 kts 65°
2026-05-08 02:26 36.75554 135.81105 34817 ft 578 kts 65°
2026-05-08 02:26 36.79024 135.90160 34810 ft 578 kts 66°
2026-05-08 02:27 36.82480 135.99201 34793 ft 578 kts 66°
2026-05-08 02:27 36.85933 136.08263 34809 ft 578 kts 66°
2026-05-08 02:28 36.89378 136.17327 34804 ft 577 kts 66°
2026-05-08 02:28 36.92813 136.26395 34803 ft 577 kts 66°
2026-05-08 02:29 36.96240 136.35465 34806 ft 577 kts 66°
2026-05-08 02:29 36.99662 136.44550 34804 ft 577 kts 66°
2026-05-08 02:30 37.03030 136.53516 34802 ft 577 kts 66°
2026-05-08 02:30 37.06434 136.62607 34800 ft 577 kts 66°
2026-05-08 02:31 37.09832 136.71708 34799 ft 576 kts 66°
2026-05-08 02:31 37.13216 136.80795 34795 ft 576 kts 67°
2026-05-08 02:32 37.16596 136.89897 34803 ft 575 kts 67°
2026-05-08 02:32 37.19963 136.98990 34801 ft 575 kts 67°
2026-05-08 02:33 37.23319 137.08083 34801 ft 575 kts 67°
2026-05-08 02:33 37.26674 137.17197 34797 ft 574 kts 67°
2026-05-08 02:34 37.30017 137.26306 34798 ft 574 kts 68°
2026-05-08 02:34 37.33323 137.35345 34792 ft 574 kts 68°
2026-05-08 02:35 37.36656 137.44481 34789 ft 574 kts 68°
2026-05-08 02:35 37.39971 137.53597 34793 ft 573 kts 68°
2026-05-08 02:36 37.43278 137.62718 34791 ft 573 kts 68°
2026-05-08 02:36 37.46573 137.71832 34797 ft 572 kts 68°
2026-05-08 02:37 37.49862 137.80959 34796 ft 572 kts 68°
2026-05-08 02:37 37.53142 137.90088 34800 ft 572 kts 68°
2026-05-08 02:38 37.56413 137.99218 34803 ft 572 kts 68°
2026-05-08 02:38 37.59128 138.06818 34802 ft 572 kts 69°
2026-05-08 02:39 37.62918 138.17458 34796 ft 572 kts 69°
2026-05-08 02:39 37.66167 138.26611 34797 ft 572 kts 69°
2026-05-08 02:40 37.69412 138.35779 34801 ft 571 kts 69°
2026-05-08 02:40 37.72117 138.43444 34796 ft 571 kts 69°
2026-05-08 02:41 37.75333 138.52580 34793 ft 570 kts 69°
2026-05-08 02:41 37.78561 138.61771 34796 ft 570 kts 69°
2026-05-08 02:42 37.81764 138.70924 34791 ft 569 kts 69°
2026-05-08 02:42 37.84958 138.80078 34785 ft 569 kts 69°
2026-05-08 02:43 37.88149 138.89253 34781 ft 569 kts 70°
2026-05-08 02:43 37.91332 138.98435 34774 ft 570 kts 70°
2026-05-08 02:44 37.94490 139.07602 34781 ft 570 kts 71°
2026-05-08 02:44 37.95717 139.12385 34942 ft 564 kts 82°
2026-05-08 02:44 37.96436 139.17234 35266 ft 559 kts 86°
2026-05-08 02:45 37.97031 139.22105 35537 ft 558 kts 87°
2026-05-08 02:45 37.97558 139.26914 35778 ft 558 kts 88°
2026-05-08 02:45 37.98068 139.31851 36056 ft 557 kts 88°
2026-05-08 02:45 37.98556 139.36657 36312 ft 557 kts 88°
2026-05-08 02:46 37.99050 139.41521 36568 ft 557 kts 88°
2026-05-08 02:46 37.99555 139.46460 36756 ft 559 kts 88°
2026-05-08 02:46 38.00559 139.56179 36799 ft 559 kts 87°
2026-05-08 02:47 38.01566 139.65940 36790 ft 559 kts 87°
2026-05-08 02:47 38.02571 139.75716 36776 ft 559 kts 87°
2026-05-08 02:48 38.03570 139.85497 36798 ft 559 kts 87°
2026-05-08 02:48 38.04554 139.95284 36796 ft 559 kts 87°
2026-05-08 02:49 38.05532 140.05072 36797 ft 559 kts 87°
2026-05-08 02:49 38.06502 140.14863 36791 ft 559 kts 87°
2026-05-08 02:50 38.07464 140.24655 36792 ft 558 kts 87°
2026-05-08 02:50 38.08415 140.34418 36786 ft 558 kts 87°
2026-05-08 02:51 38.09358 140.44190 36789 ft 557 kts 87°
2026-05-08 02:51 38.10292 140.53933 36787 ft 555 kts 88°
2026-05-08 02:52 38.11214 140.63666 36798 ft 555 kts 87°
2026-05-08 02:52 38.12127 140.73384 36797 ft 554 kts 88°
2026-05-08 02:53 38.13029 140.83078 36800 ft 552 kts 88°
2026-05-08 02:53 38.13598 140.92759 36799 ft 544 kts 98°
2026-05-08 02:54 38.12794 141.02232 36801 ft 538 kts 104°
2026-05-08 02:54 38.11736 141.11564 36796 ft 537 kts 105°
2026-05-08 02:55 38.10090 141.25611 36789 ft 536 kts 105°
2026-05-08 02:56 38.09002 141.35029 36787 ft 536 kts 105°
2026-05-08 02:56 38.07930 141.44316 36789 ft 535 kts 105°
2026-05-08 02:57 38.06844 141.53658 36786 ft 535 kts 105°
2026-05-08 02:57 38.05751 141.62992 36790 ft 534 kts 105°
2026-05-08 02:58 38.04652 141.72301 36789 ft 534 kts 105°
2026-05-08 02:58 38.03546 141.81613 36789 ft 533 kts 105°
2026-05-08 02:59 38.02436 141.90890 36789 ft 532 kts 105°
2026-05-08 02:59 38.01319 142.00153 36787 ft 531 kts 105°
2026-05-08 03:00 38.00197 142.09414 36791 ft 531 kts 105°
2026-05-08 03:00 37.99067 142.18663 36787 ft 531 kts 105°
2026-05-08 03:01 37.97925 142.27910 36793 ft 532 kts 105°
2026-05-08 03:01 37.96775 142.37170 36782 ft 532 kts 105°
2026-05-08 03:02 37.95618 142.46447 36792 ft 533 kts 105°
2026-05-08 03:02 37.94453 142.55722 36804 ft 533 kts 105°
2026-05-08 03:03 37.93280 142.65005 36794 ft 534 kts 105°
2026-05-08 03:03 37.92098 142.74294 36807 ft 534 kts 105°
2026-05-08 03:04 37.90909 142.83585 36802 ft 534 kts 105°
2026-05-08 03:04 37.89714 142.92860 36800 ft 534 kts 105°
2026-05-08 03:05 37.88511 143.02134 36810 ft 534 kts 105°
2026-05-08 03:05 37.87299 143.11414 36808 ft 534 kts 105°
2026-05-08 03:06 37.86081 143.20685 36806 ft 534 kts 105°
2026-05-08 03:06 37.84861 143.29958 36810 ft 534 kts 105°
2026-05-08 03:07 37.83634 143.39172 36807 ft 534 kts 105°
2026-05-08 03:07 37.82384 143.48490 36808 ft 534 kts 105°
2026-05-08 03:08 37.80635 143.57471 36809 ft 525 kts 114°
2026-05-08 03:08 37.78265 143.66195 36806 ft 524 kts 115°
2026-05-08 03:09 37.75805 143.74856 36807 ft 524 kts 116°
2026-05-08 03:09 37.73338 143.83512 36815 ft 523 kts 115°
2026-05-08 03:10 37.70882 143.92158 36809 ft 523 kts 115°
2026-05-08 03:10 37.68424 144.00805 36811 ft 523 kts 115°
2026-05-08 03:11 37.65962 144.09443 36810 ft 523 kts 115°
2026-05-08 03:11 37.63497 144.18064 36812 ft 523 kts 115°
2026-05-08 03:12 37.61023 144.26683 36814 ft 522 kts 115°
2026-05-08 03:12 37.58544 144.35294 36817 ft 522 kts 115°
2026-05-08 03:13 37.56061 144.43890 36816 ft 522 kts 115°
2026-05-08 03:13 37.53577 144.52465 36816 ft 521 kts 115°
2026-05-08 03:14 37.51084 144.61044 36813 ft 521 kts 115°
2026-05-08 03:14 37.48589 144.69602 36814 ft 520 kts 115°
2026-05-08 03:15 37.46092 144.78138 36819 ft 520 kts 115°
2026-05-08 03:15 37.43589 144.86670 36820 ft 519 kts 115°
2026-05-08 03:16 37.41081 144.95191 36820 ft 519 kts 115°
2026-05-08 03:16 37.38566 145.03709 36818 ft 519 kts 115°
2026-05-08 03:17 37.36046 145.12220 36821 ft 519 kts 115°
2026-05-08 03:17 37.33521 145.20720 36823 ft 520 kts 116°
2026-05-08 03:18 37.31002 145.29171 36827 ft 520 kts 116°
2026-05-08 03:18 37.28461 145.37673 36827 ft 520 kts 116°
2026-05-08 03:19 37.25914 145.46169 36835 ft 520 kts 116°
2026-05-08 03:19 37.23375 145.54683 36831 ft 522 kts 114°
2026-05-08 03:20 37.22073 145.63715 36838 ft 534 kts 94°
2026-05-08 03:20 37.22361 145.68366 36842 ft 538 kts 82°
2026-05-08 03:20 37.23334 145.72898 36841 ft 542 kts 70°
2026-05-08 03:21 37.26895 145.81244 36841 ft 544 kts 58°
2026-05-08 03:21 37.30952 145.89275 36841 ft 544 kts 57°
2026-05-08 03:22 37.35023 145.97288 36841 ft 544 kts 58°
2026-05-08 03:22 37.39055 146.05356 36838 ft 544 kts 58°
2026-05-08 03:23 37.43052 146.13436 36842 ft 544 kts 58°
2026-05-08 03:23 37.47043 146.21534 36844 ft 544 kts 58°
2026-05-08 03:24 37.51030 146.29641 36845 ft 544 kts 58°
2026-05-08 03:24 37.55015 146.37759 36844 ft 544 kts 58°
2026-05-08 03:25 37.58991 146.45876 36846 ft 544 kts 58°
2026-05-08 03:25 37.62294 146.52636 36846 ft 544 kts 58°
2026-05-08 03:26 37.66257 146.60764 36852 ft 544 kts 58°
2026-05-08 03:26 37.70860 146.70231 36853 ft 544 kts 58°
2026-05-08 03:27 37.74174 146.77064 36849 ft 544 kts 58°
2026-05-08 03:27 37.78097 146.85169 36848 ft 544 kts 58°
2026-05-08 03:28 37.82034 146.93326 36852 ft 544 kts 59°
2026-05-08 03:28 37.85969 147.01500 36851 ft 544 kts 59°
2026-05-08 03:29 37.89897 147.09677 36852 ft 544 kts 59°
2026-05-08 03:29 37.93818 147.17861 36855 ft 543 kts 59°
2026-05-08 03:30 37.99686 147.30147 36855 ft 543 kts 59°
2026-05-08 03:31 38.07489 147.46557 36856 ft 543 kts 59°
2026-05-08 03:32 38.13318 147.58870 36860 ft 542 kts 59°
2026-05-08 03:32 38.17196 147.67089 36859 ft 542 kts 59°
2026-05-08 03:33 38.21071 147.75321 36856 ft 542 kts 59°
2026-05-08 03:33 38.24932 147.83544 36863 ft 542 kts 59°
2026-05-08 03:34 38.28791 147.91785 36862 ft 542 kts 59°
2026-05-08 03:34 38.32641 148.00026 36859 ft 542 kts 59°
2026-05-08 03:35 38.36487 148.08280 36858 ft 542 kts 59°
2026-05-08 03:35 38.40324 148.16538 36861 ft 542 kts 59°
2026-05-08 03:36 38.44156 148.24806 36860 ft 541 kts 59°
2026-05-08 03:36 38.47982 148.33082 36860 ft 541 kts 59°
2026-05-08 03:37 38.51800 148.41361 36862 ft 541 kts 59°
2026-05-08 03:37 38.55608 148.49641 36863 ft 541 kts 59°
2026-05-08 03:38 38.59413 148.57935 36862 ft 540 kts 60°
2026-05-08 03:38 38.63205 148.66222 36862 ft 540 kts 60°
2026-05-08 03:39 38.66993 148.74521 36863 ft 540 kts 60°
2026-05-08 03:39 38.70770 148.82819 36862 ft 540 kts 60°
2026-05-08 03:40 38.74522 148.91084 36861 ft 540 kts 60°
2026-05-08 03:40 38.78290 148.99406 36862 ft 540 kts 60°
2026-05-08 03:41 38.82058 149.07749 36862 ft 541 kts 60°
2026-05-08 03:41 38.85819 149.16100 36858 ft 541 kts 60°
2026-05-08 03:42 38.89573 149.24455 36856 ft 541 kts 60°
2026-05-08 03:42 38.93325 149.32830 36854 ft 541 kts 60°
2026-05-08 03:43 38.97074 149.41218 36851 ft 541 kts 60°
2026-05-08 03:43 39.00812 149.49607 36850 ft 541 kts 60°
2026-05-08 03:44 39.04544 149.58002 36851 ft 541 kts 60°
2026-05-08 03:44 39.08271 149.66409 36850 ft 541 kts 60°
2026-05-08 03:45 39.11987 149.74816 36850 ft 540 kts 60°
2026-05-08 03:45 39.15962 149.83031 36848 ft 540 kts 50°
2026-05-08 03:46 39.20898 149.90302 36842 ft 539 kts 46°
2026-05-08 03:46 39.25962 149.97345 36840 ft 539 kts 45°
2026-05-08 03:47 39.31075 150.04422 36838 ft 539 kts 45°
2026-05-08 03:47 39.36168 150.11526 36835 ft 539 kts 46°
2026-05-08 03:48 39.41255 150.18663 36834 ft 539 kts 46°
2026-05-08 03:48 39.46332 150.25808 36833 ft 540 kts 46°
2026-05-08 03:49 39.51407 150.32966 36834 ft 540 kts 46°
2026-05-08 03:49 39.56483 150.40140 36829 ft 540 kts 46°
2026-05-08 03:50 39.61549 150.47318 36824 ft 540 kts 46°
2026-05-08 03:50 39.66611 150.54506 36822 ft 540 kts 46°
2026-05-08 03:51 39.71672 150.61709 36821 ft 539 kts 46°
2026-05-08 03:51 39.76725 150.68917 36817 ft 539 kts 46°
2026-05-08 03:52 39.81770 150.76132 36816 ft 539 kts 46°
2026-05-08 03:52 39.86815 150.83364 36814 ft 540 kts 46°
2026-05-08 03:53 39.91858 150.90609 36810 ft 540 kts 46°
2026-05-08 03:53 39.96858 150.97809 36808 ft 540 kts 46°
2026-05-08 03:54 40.01893 151.05079 36802 ft 540 kts 47°
2026-05-08 03:54 40.06923 151.12357 36801 ft 540 kts 47°
2026-05-08 03:55 40.11950 151.19648 36794 ft 540 kts 47°
2026-05-08 03:55 40.16978 151.26960 36794 ft 540 kts 47°
2026-05-08 03:56 40.21998 151.34275 36783 ft 541 kts 47°
2026-05-08 03:56 40.27020 151.41613 36785 ft 541 kts 47°
2026-05-08 03:57 40.32035 151.48957 36782 ft 541 kts 47°
2026-05-08 03:57 40.37050 151.56320 36781 ft 541 kts 47°
2026-05-08 03:58 40.42064 151.63698 36776 ft 542 kts 47°
2026-05-08 03:58 40.47075 151.71090 36778 ft 542 kts 47°
2026-05-08 03:59 40.52082 151.78494 36773 ft 542 kts 47°
2026-05-08 03:59 40.57089 151.85915 36772 ft 542 kts 47°
2026-05-08 04:00 40.62092 151.93351 36764 ft 542 kts 47°
2026-05-08 04:00 40.67090 152.00796 36771 ft 543 kts 47°
2026-05-08 04:01 40.72084 152.08255 36772 ft 543 kts 47°
2026-05-08 04:01 40.77074 152.15725 36768 ft 543 kts 47°
2026-05-08 04:02 40.82065 152.23214 36761 ft 543 kts 47°
2026-05-08 04:02 40.87019 152.30668 36760 ft 543 kts 46°
2026-05-08 04:03 40.92004 152.38187 36763 ft 544 kts 47°
2026-05-08 04:03 40.99475 152.49488 36754 ft 544 kts 47°
2026-05-08 04:04 41.04453 152.57043 36762 ft 544 kts 47°
2026-05-08 04:04 41.09424 152.64605 36765 ft 544 kts 47°
2026-05-08 04:05 41.14393 152.72184 36770 ft 545 kts 47°
2026-05-08 04:05 41.19362 152.79782 36777 ft 545 kts 47°
2026-05-08 04:06 41.24332 152.87400 36776 ft 546 kts 47°
2026-05-08 04:06 41.29300 152.95035 36775 ft 547 kts 47°
2026-05-08 04:07 41.34273 153.02696 36778 ft 547 kts 47°
2026-05-08 04:07 41.39249 153.10381 36780 ft 548 kts 47°
2026-05-08 04:08 41.44221 153.18081 36785 ft 549 kts 47°
2026-05-08 04:08 41.49193 153.25800 36785 ft 549 kts 46°
2026-05-08 04:09 41.54171 153.33549 36790 ft 550 kts 46°
2026-05-08 04:09 41.59136 153.41297 36789 ft 549 kts 46°
2026-05-08 04:10 41.64101 153.49065 36790 ft 549 kts 46°
2026-05-08 04:10 41.69059 153.56844 36801 ft 549 kts 46°
2026-05-08 04:11 41.74009 153.64629 36789 ft 549 kts 46°
2026-05-08 04:11 41.78955 153.72427 36812 ft 549 kts 46°
2026-05-08 04:12 41.83897 153.80240 36806 ft 549 kts 46°
2026-05-08 04:12 41.87999 153.86741 36805 ft 550 kts 46°
2026-05-08 04:13 41.92938 153.94585 36803 ft 550 kts 46°
2026-05-08 04:13 41.97875 154.02449 36811 ft 550 kts 46°
2026-05-08 04:14 42.03604 154.11601 36816 ft 551 kts 46°
2026-05-08 04:14 42.07738 154.18224 36821 ft 551 kts 46°
2026-05-08 04:15 42.12672 154.26145 36823 ft 552 kts 46°
2026-05-08 04:15 42.17599 154.34077 36827 ft 552 kts 46°
2026-05-08 04:16 42.22525 154.42028 36829 ft 552 kts 46°
2026-05-08 04:16 42.27447 154.49993 36838 ft 552 kts 46°
2026-05-08 04:17 42.32329 154.57915 36837 ft 552 kts 46°
2026-05-08 04:17 42.37240 154.65905 36838 ft 553 kts 46°
2026-05-08 04:18 42.42149 154.73915 36844 ft 553 kts 46°
2026-05-08 04:18 42.47048 154.81929 36844 ft 553 kts 46°
2026-05-08 04:19 42.51945 154.89961 36849 ft 553 kts 46°
2026-05-08 04:19 42.56840 154.98012 36846 ft 552 kts 45°
2026-05-08 04:20 42.61719 155.06059 36862 ft 553 kts 45°
2026-05-08 04:20 42.66596 155.14126 36851 ft 552 kts 45°
2026-05-08 04:21 42.71464 155.22199 36859 ft 552 kts 46°
2026-05-08 04:21 42.76321 155.30274 36863 ft 551 kts 45°
2026-05-08 04:22 42.81165 155.38351 36863 ft 551 kts 46°
2026-05-08 04:22 42.86002 155.46439 36864 ft 550 kts 46°
2026-05-08 04:23 42.90835 155.54542 36869 ft 550 kts 45°
2026-05-08 04:23 42.95655 155.62646 36871 ft 550 kts 45°
2026-05-08 04:24 43.00459 155.70768 36875 ft 550 kts 46°
2026-05-08 04:24 43.05192 155.78977 36872 ft 550 kts 46°
2026-05-08 04:25 43.09903 155.87215 36879 ft 550 kts 46°
2026-05-08 04:25 43.14622 155.95463 36883 ft 550 kts 46°
2026-05-08 04:26 43.19336 156.03705 36881 ft 549 kts 46°
2026-05-08 04:26 43.24044 156.11956 36885 ft 549 kts 46°
2026-05-08 04:27 43.28743 156.20215 36889 ft 549 kts 46°
2026-05-08 04:27 43.33405 156.28433 36892 ft 549 kts 46°
2026-05-08 04:28 43.38091 156.36717 36894 ft 549 kts 46°
2026-05-08 04:28 43.42771 156.45014 36895 ft 549 kts 46°
2026-05-08 04:29 43.47444 156.53322 36893 ft 549 kts 46°
2026-05-08 04:29 43.52108 156.61636 36898 ft 549 kts 46°
2026-05-08 04:30 43.56769 156.69970 36899 ft 548 kts 46°
2026-05-08 04:30 43.61416 156.78304 36902 ft 548 kts 46°
2026-05-08 04:31 43.66056 156.86647 36899 ft 548 kts 46°
2026-05-08 04:31 43.70689 156.95000 36904 ft 547 kts 46°
2026-05-08 04:32 43.75312 157.03361 36905 ft 547 kts 46°
2026-05-08 04:32 43.79927 157.11732 36910 ft 547 kts 46°
2026-05-08 04:33 43.84531 157.20106 36916 ft 546 kts 46°
2026-05-08 04:33 43.89127 157.28489 36914 ft 546 kts 46°
2026-05-08 04:34 43.93724 157.36887 36763 ft 546 kts 48°
2026-05-08 04:34 43.96027 157.41097 36913 ft 550 kts 48°
2026-05-08 04:34 43.98348 157.45355 36922 ft 556 kts 49°
2026-05-08 04:35 44.03034 157.53984 36919 ft 560 kts 49°
2026-05-08 04:35 44.07681 157.62574 36922 ft 559 kts 49°
2026-05-08 04:36 44.12350 157.71223 36927 ft 559 kts 49°
2026-05-08 04:36 44.17019 157.79890 36922 ft 559 kts 49°
2026-05-08 04:37 44.21683 157.88574 36927 ft 560 kts 49°
2026-05-08 04:37 44.26344 157.97279 36926 ft 560 kts 49°
2026-05-08 04:38 44.31000 158.06002 36929 ft 560 kts 49°
2026-05-08 04:38 44.35650 158.14739 36928 ft 561 kts 49°
2026-05-08 04:39 44.40297 158.23497 36932 ft 561 kts 49°
2026-05-08 04:39 44.44940 158.32274 36932 ft 562 kts 49°
2026-05-08 04:40 44.49586 158.41083 36933 ft 562 kts 48°
2026-05-08 04:40 44.54220 158.49897 36934 ft 562 kts 48°
2026-05-08 04:41 44.58856 158.58741 36933 ft 563 kts 48°
2026-05-08 04:41 44.63485 158.67600 36936 ft 563 kts 48°
2026-05-08 04:42 44.68115 158.76487 36937 ft 564 kts 48°
2026-05-08 04:42 44.72744 158.85400 36942 ft 564 kts 48°
2026-05-08 04:43 44.77364 158.94322 36943 ft 565 kts 48°
2026-05-08 04:43 44.81985 159.03274 36932 ft 565 kts 48°
2026-05-08 04:44 44.86602 159.12247 36938 ft 566 kts 48°
2026-05-08 04:44 44.91212 159.21236 36942 ft 566 kts 48°
2026-05-08 04:45 44.95792 159.30192 36943 ft 566 kts 48°
2026-05-08 04:45 45.00395 159.39223 36944 ft 567 kts 48°
2026-05-08 04:46 45.04996 159.48278 36943 ft 567 kts 48°
2026-05-08 04:46 45.09591 159.57349 36947 ft 568 kts 48°
2026-05-08 04:47 45.14189 159.66454 36942 ft 568 kts 48°
2026-05-08 04:47 45.18781 159.75578 36943 ft 569 kts 48°
2026-05-08 04:48 45.23366 159.84718 36944 ft 569 kts 48°
2026-05-08 04:48 45.27948 159.93879 36946 ft 569 kts 48°
2026-05-08 04:49 45.32522 160.03055 36947 ft 569 kts 48°
2026-05-08 04:49 45.37089 160.12248 36946 ft 570 kts 48°
2026-05-08 04:50 45.41654 160.21464 36941 ft 570 kts 48°
2026-05-08 04:50 45.46216 160.30704 36945 ft 570 kts 48°
2026-05-08 04:51 45.50770 160.39960 36946 ft 571 kts 48°
2026-05-08 04:51 45.55287 160.49169 36948 ft 571 kts 48°
2026-05-08 04:52 45.59837 160.58476 36944 ft 571 kts 48°
2026-05-08 04:52 45.64376 160.67792 36947 ft 572 kts 48°
2026-05-08 04:53 45.68910 160.77128 36946 ft 572 kts 48°
2026-05-08 04:53 45.73436 160.86477 36944 ft 572 kts 48°
2026-05-08 04:54 45.77961 160.95857 36947 ft 572 kts 48°
2026-05-08 04:54 45.82480 161.05253 36946 ft 573 kts 48°
2026-05-08 04:55 45.86990 161.14665 36946 ft 573 kts 48°
2026-05-08 04:55 45.91493 161.24092 36946 ft 573 kts 48°
2026-05-08 04:56 45.95994 161.33546 36948 ft 573 kts 48°
2026-05-08 04:56 46.00487 161.43015 36953 ft 574 kts 48°
2026-05-08 04:57 46.04978 161.52512 36950 ft 574 kts 48°
2026-05-08 04:57 46.09461 161.62024 36952 ft 574 kts 48°
2026-05-08 04:58 46.13942 161.71565 36942 ft 575 kts 48°
2026-05-08 04:58 46.18413 161.81117 36944 ft 575 kts 48°
2026-05-08 04:59 46.22879 161.90690 36944 ft 575 kts 48°
2026-05-08 04:59 46.27340 162.00286 36945 ft 575 kts 48°
2026-05-08 05:00 46.31798 162.09908 36941 ft 575 kts 48°
2026-05-08 05:00 46.35495 162.17911 36938 ft 576 kts 48°
2026-05-08 05:01 46.40654 162.29122 36937 ft 576 kts 48°
2026-05-08 05:01 46.44940 162.38982 36939 ft 581 kts 52°
2026-05-08 05:02 46.48222 162.47587 36938 ft 583 kts 54°
2026-05-08 05:02 46.52103 162.57924 36940 ft 583 kts 53°
2026-05-08 05:03 46.56044 162.68205 36941 ft 582 kts 53°
2026-05-08 05:03 46.60016 162.78452 36939 ft 582 kts 52°
2026-05-08 05:04 46.63959 162.88640 36938 ft 582 kts 53°
2026-05-08 05:04 46.67951 162.99008 36935 ft 583 kts 53°
2026-05-08 05:05 46.71874 163.09247 36933 ft 583 kts 53°
2026-05-08 05:05 46.75819 163.19584 36928 ft 583 kts 53°
2026-05-08 05:06 46.79754 163.29935 36929 ft 584 kts 53°
2026-05-08 05:06 46.83684 163.40313 36928 ft 584 kts 53°
2026-05-08 05:07 46.87604 163.50701 36924 ft 584 kts 53°
2026-05-08 05:07 46.91513 163.61102 36928 ft 584 kts 53°
2026-05-08 05:08 46.95415 163.71523 36923 ft 584 kts 53°
2026-05-08 05:08 46.99313 163.81976 36924 ft 584 kts 53°
2026-05-08 05:09 47.03197 163.92433 36924 ft 585 kts 53°
2026-05-08 05:09 47.07077 164.02916 36920 ft 585 kts 53°
2026-05-08 05:10 47.12873 164.18659 36917 ft 585 kts 53°
2026-05-08 05:11 47.16728 164.29179 36924 ft 585 kts 53°
2026-05-08 05:11 47.20573 164.39715 36917 ft 585 kts 53°
2026-05-08 05:12 47.24407 164.50263 36905 ft 585 kts 53°
2026-05-08 05:12 47.28237 164.60841 36914 ft 585 kts 53°
2026-05-08 05:13 47.32051 164.71416 36912 ft 585 kts 53°
2026-05-08 05:13 47.35863 164.82027 36911 ft 585 kts 53°
2026-05-08 05:14 47.39660 164.92641 36912 ft 585 kts 53°
2026-05-08 05:14 47.43425 165.03207 36909 ft 585 kts 53°
2026-05-08 05:15 47.47204 165.13857 36906 ft 585 kts 53°
2026-05-08 05:15 47.50974 165.24523 36903 ft 585 kts 53°
2026-05-08 05:16 47.54735 165.35206 36904 ft 585 kts 53°
2026-05-08 05:16 47.58485 165.45902 36899 ft 585 kts 54°
2026-05-08 05:17 47.62223 165.56609 36896 ft 585 kts 54°
2026-05-08 05:17 47.65960 165.67355 36893 ft 585 kts 54°
2026-05-08 05:18 47.69683 165.78107 36890 ft 585 kts 54°
2026-05-08 05:18 47.73392 165.88862 36882 ft 585 kts 54°
2026-05-08 05:19 47.77094 165.99641 36884 ft 585 kts 54°
2026-05-08 05:19 47.80786 166.10434 36883 ft 585 kts 54°
2026-05-08 05:20 47.84466 166.21241 36886 ft 586 kts 54°
2026-05-08 05:20 47.88137 166.32065 36881 ft 586 kts 54°
2026-05-08 05:21 47.91776 166.42837 36882 ft 586 kts 54°
2026-05-08 05:21 47.95427 166.53693 36880 ft 586 kts 54°
2026-05-08 05:22 47.99068 166.64564 36881 ft 586 kts 54°
2026-05-08 05:22 48.02698 166.75450 36879 ft 586 kts 55°
2026-05-08 05:23 48.06317 166.86346 36876 ft 586 kts 55°
2026-05-08 05:23 48.09927 166.97263 36874 ft 585 kts 55°
2026-05-08 05:24 48.13523 167.08186 36873 ft 585 kts 55°
2026-05-08 05:24 48.17110 167.19124 36871 ft 585 kts 55°
2026-05-08 05:25 48.20686 167.30077 36877 ft 585 kts 55°
2026-05-08 05:25 48.24248 167.41037 36875 ft 585 kts 55°
2026-05-08 05:26 48.27803 167.52020 36874 ft 585 kts 56°
2026-05-08 05:26 48.31345 167.63013 36872 ft 584 kts 56°
2026-05-08 05:27 48.34875 167.74013 36872 ft 584 kts 56°
2026-05-08 05:27 48.38391 167.85020 36872 ft 584 kts 56°
2026-05-08 05:28 48.41897 167.96045 36868 ft 584 kts 56°
2026-05-08 05:28 48.45393 168.07082 36867 ft 584 kts 56°
2026-05-08 05:29 48.48876 168.18131 36866 ft 583 kts 56°
2026-05-08 05:29 48.52348 168.29192 36874 ft 583 kts 56°
2026-05-08 05:30 48.55783 168.40186 36872 ft 583 kts 57°
2026-05-08 05:30 48.59231 168.51267 36868 ft 583 kts 57°
2026-05-08 05:31 48.62665 168.62356 36864 ft 583 kts 57°
2026-05-08 05:31 48.66091 168.73467 36864 ft 583 kts 57°
2026-05-08 05:32 48.69491 168.84592 36864 ft 583 kts 58°
2026-05-08 05:32 48.72813 168.95798 36868 ft 584 kts 58°
2026-05-08 05:33 48.76110 169.07032 36871 ft 583 kts 58°
2026-05-08 05:33 48.79408 169.18275 36869 ft 583 kts 58°
2026-05-08 05:34 48.82698 169.29513 36869 ft 583 kts 58°
2026-05-08 05:34 48.85977 169.40754 36872 ft 583 kts 58°
2026-05-08 05:35 48.89248 169.52026 36875 ft 582 kts 58°
2026-05-08 05:35 48.92500 169.63286 36871 ft 582 kts 59°
2026-05-08 05:36 48.95741 169.74564 36875 ft 582 kts 59°
2026-05-08 05:36 48.98950 169.85779 36878 ft 581 kts 59°
2026-05-08 05:37 49.02165 169.97069 36883 ft 581 kts 59°
2026-05-08 05:37 49.05367 170.08367 36883 ft 581 kts 59°
2026-05-08 05:38 49.08558 170.19679 36880 ft 580 kts 59°
2026-05-08 05:38 49.11731 170.30981 36888 ft 579 kts 59°
2026-05-08 05:39 49.14892 170.42295 36887 ft 579 kts 59°
2026-05-08 05:39 49.18038 170.53609 36891 ft 578 kts 60°
2026-05-08 05:40 49.21170 170.64925 36878 ft 577 kts 60°
2026-05-08 05:40 49.24285 170.76233 36889 ft 577 kts 60°
2026-05-08 05:41 49.27387 170.87551 36894 ft 576 kts 60°
2026-05-08 05:41 49.30472 170.98862 36894 ft 575 kts 60°
2026-05-08 05:42 49.33543 171.10173 36909 ft 574 kts 60°
2026-05-08 05:42 49.36598 171.21481 36905 ft 574 kts 60°
2026-05-08 05:43 49.39638 171.32789 36908 ft 573 kts 61°
2026-05-08 05:43 49.42663 171.44096 36911 ft 572 kts 61°
2026-05-08 05:44 49.45675 171.55410 36911 ft 571 kts 61°
2026-05-08 05:44 49.48670 171.66711 36916 ft 571 kts 61°
2026-05-08 05:45 49.51646 171.78003 36915 ft 569 kts 61°
2026-05-08 05:45 49.54612 171.89304 36922 ft 569 kts 62°
2026-05-08 05:46 49.57558 172.00590 36918 ft 567 kts 62°
2026-05-08 05:46 49.60486 172.11864 36918 ft 566 kts 62°
2026-05-08 05:47 49.63403 172.23145 36909 ft 565 kts 62°
2026-05-08 05:47 49.66300 172.34407 36913 ft 565 kts 62°
2026-05-08 05:48 49.69164 172.45601 36914 ft 564 kts 62°
2026-05-08 05:48 49.72029 172.56849 36921 ft 563 kts 63°
2026-05-08 05:49 49.74881 172.68104 36919 ft 562 kts 63°
2026-05-08 05:49 49.77717 172.79349 36922 ft 560 kts 63°
2026-05-08 05:50 49.80534 172.90578 36924 ft 559 kts 63°
2026-05-08 05:50 49.82884 172.99987 36921 ft 558 kts 63°
2026-05-08 05:51 49.85672 173.11202 36929 ft 557 kts 64°
2026-05-08 05:51 49.88445 173.22414 36917 ft 556 kts 64°
2026-05-08 05:52 49.91204 173.33622 36920 ft 555 kts 64°
2026-05-08 05:52 49.93943 173.44809 36920 ft 554 kts 64°
2026-05-08 05:53 49.96652 173.55931 36922 ft 554 kts 64°
2026-05-08 05:53 49.99362 173.67111 36920 ft 553 kts 64°
2026-05-08 05:54 50.02057 173.78289 36922 ft 552 kts 65°
2026-05-08 05:54 50.04738 173.89464 36920 ft 551 kts 65°
2026-05-08 05:55 50.07405 174.00636 36921 ft 550 kts 65°
2026-05-08 05:55 50.10056 174.11798 36924 ft 549 kts 65°
2026-05-08 05:56 50.12692 174.22957 36925 ft 548 kts 65°
2026-05-08 05:56 50.15312 174.34108 36927 ft 548 kts 66°
2026-05-08 05:57 50.17918 174.45256 36922 ft 547 kts 66°
2026-05-08 05:57 50.20513 174.56409 36927 ft 546 kts 66°
2026-05-08 05:58 50.23093 174.67555 36927 ft 545 kts 66°
2026-05-08 05:58 50.25657 174.78688 36925 ft 544 kts 66°
2026-05-08 05:59 50.28208 174.89828 36927 ft 544 kts 66°
2026-05-08 05:59 50.30744 175.00960 36926 ft 543 kts 67°
2026-05-08 06:00 50.33267 175.12090 36926 ft 543 kts 67°
2026-05-08 06:00 50.35758 175.23145 36926 ft 542 kts 67°
2026-05-08 06:01 50.38256 175.34286 36929 ft 541 kts 67°
2026-05-08 06:01 50.40737 175.45414 36925 ft 541 kts 68°
2026-05-08 06:02 50.43205 175.56537 36928 ft 540 kts 68°
2026-05-08 06:02 50.45660 175.67666 36922 ft 539 kts 68°
2026-05-08 06:03 50.48101 175.78787 36931 ft 539 kts 68°
2026-05-08 06:03 50.50530 175.89913 36958 ft 538 kts 68°
2026-05-08 06:03 50.51739 175.95475 37207 ft 538 kts 68°
2026-05-08 06:04 50.52948 176.01011 37604 ft 534 kts 68°
2026-05-08 06:04 50.54158 176.06499 38029 ft 531 kts 68°
2026-05-08 06:04 50.55370 176.11990 38399 ft 529 kts 69°
2026-05-08 06:04 50.56574 176.17451 38705 ft 528 kts 69°
2026-05-08 06:05 50.57774 176.22911 38884 ft 528 kts 69°
2026-05-08 06:05 50.60166 176.33861 38927 ft 529 kts 69°
2026-05-08 06:06 50.62538 176.44805 38926 ft 528 kts 69°
2026-05-08 06:06 50.64898 176.55754 38926 ft 528 kts 69°
2026-05-08 06:07 50.67246 176.66703 38925 ft 527 kts 70°
2026-05-08 06:07 50.69584 176.77664 38927 ft 527 kts 70°
2026-05-08 06:08 50.71908 176.88622 38925 ft 527 kts 70°
2026-05-08 06:08 50.74221 176.99580 38929 ft 526 kts 70°
2026-05-08 06:09 50.76506 177.10471 38927 ft 525 kts 70°
2026-05-08 06:09 50.78794 177.21433 38927 ft 525 kts 70°
2026-05-08 06:10 50.81069 177.32391 38926 ft 525 kts 70°
2026-05-08 06:10 50.83332 177.43351 38925 ft 524 kts 70°
2026-05-08 06:11 50.85585 177.54325 38923 ft 524 kts 71°
2026-05-08 06:11 50.87821 177.65277 38925 ft 523 kts 71°
2026-05-08 06:12 50.90051 177.76264 38923 ft 523 kts 71°
2026-05-08 06:12 50.92266 177.87233 38919 ft 523 kts 71°
2026-05-08 06:13 50.94471 177.98213 38921 ft 522 kts 71°
2026-05-08 06:13 50.96663 178.09192 38923 ft 522 kts 71°
2026-05-08 06:14 50.98842 178.20167 38920 ft 521 kts 71°
2026-05-08 06:14 51.00996 178.31079 38921 ft 521 kts 71°
2026-05-08 06:15 51.03151 178.42057 38919 ft 521 kts 72°
2026-05-08 06:15 51.05309 178.53117 38917 ft 520 kts 72°
2026-05-08 06:16 51.07425 178.64020 38914 ft 520 kts 72°
2026-05-08 06:16 51.09546 178.75011 38916 ft 519 kts 72°
2026-05-08 06:17 51.12703 178.91494 38912 ft 519 kts 72°
2026-05-08 06:17 51.14794 179.02489 38912 ft 518 kts 72°
2026-05-08 06:18 51.16872 179.13478 38913 ft 518 kts 72°
2026-05-08 06:18 51.18938 179.24470 38913 ft 518 kts 72°
2026-05-08 06:19 51.20991 179.35462 38914 ft 517 kts 72°
2026-05-08 06:19 51.23034 179.46458 38914 ft 517 kts 73°
2026-05-08 06:20 51.25064 179.57454 38909 ft 516 kts 73°
2026-05-08 06:20 51.27084 179.68458 38910 ft 516 kts 73°
2026-05-08 06:21 51.29089 179.79446 38910 ft 515 kts 73°
2026-05-08 06:21 51.31081 179.90432 38907 ft 515 kts 73°
2026-05-08 06:22 51.33062 -179.98576 38904 ft 514 kts 73°
2026-05-08 06:22 51.35032 -179.87584 38900 ft 513 kts 73°
2026-05-08 06:23 51.36973 -179.76683 38901 ft 513 kts 73°
2026-05-08 06:23 51.38918 -179.65694 38900 ft 513 kts 73°
2026-05-08 06:24 51.40850 -179.54714 38899 ft 512 kts 74°
2026-05-08 06:24 51.42768 -179.43740 38897 ft 512 kts 74°
2026-05-08 06:25 51.44677 -179.32758 38896 ft 511 kts 74°
2026-05-08 06:25 51.46571 -179.21786 38894 ft 511 kts 74°
2026-05-08 06:26 51.48460 -179.10778 38894 ft 510 kts 74°
2026-05-08 06:26 51.50331 -178.99805 38896 ft 510 kts 74°
2026-05-08 06:27 51.52192 -178.88822 38895 ft 510 kts 74°
2026-05-08 06:27 51.54042 -178.77837 38894 ft 509 kts 75°
2026-05-08 06:28 51.55878 -178.66865 38893 ft 509 kts 75°
2026-05-08 06:28 51.57702 -178.55891 38889 ft 508 kts 75°
2026-05-08 06:29 51.59517 -178.44901 38892 ft 508 kts 75°
2026-05-08 06:29 51.61320 -178.33917 38882 ft 508 kts 75°
2026-05-08 06:30 51.63111 -178.22936 38884 ft 507 kts 75°
2026-05-08 06:30 51.64879 -178.12020 38882 ft 507 kts 75°
2026-05-08 06:31 51.66647 -178.01035 38880 ft 507 kts 75°
2026-05-08 06:31 51.68402 -177.90057 38878 ft 506 kts 75°
2026-05-08 06:32 51.70147 -177.79067 38878 ft 506 kts 75°
2026-05-08 06:32 51.71880 -177.68084 38874 ft 505 kts 76°
2026-05-08 06:33 51.73600 -177.57109 38866 ft 504 kts 76°
2026-05-08 06:33 51.75308 -177.46136 38868 ft 504 kts 76°
2026-05-08 06:34 51.77003 -177.35177 38869 ft 503 kts 76°
2026-05-08 06:34 51.78686 -177.24221 38868 ft 503 kts 76°
2026-05-08 06:35 51.80357 -177.13259 38873 ft 502 kts 76°
2026-05-08 06:35 51.82018 -177.02300 38876 ft 502 kts 76°
2026-05-08 06:36 51.83666 -176.91342 38879 ft 501 kts 76°
2026-05-08 06:36 51.85303 -176.80388 38888 ft 501 kts 76°
2026-05-08 06:37 51.86968 -176.69439 38886 ft 501 kts 73°
2026-05-08 06:37 51.89391 -176.58882 38886 ft 500 kts 68°
2026-05-08 06:38 51.92018 -176.48448 38887 ft 500 kts 68°
2026-05-08 06:38 51.94220 -176.39781 38883 ft 500 kts 68°
2026-05-08 06:39 51.96853 -176.29343 38877 ft 500 kts 68°
2026-05-08 06:39 51.99465 -176.18889 38870 ft 500 kts 68°
2026-05-08 06:40 52.02065 -176.08418 38861 ft 500 kts 68°
2026-05-08 06:40 52.04654 -175.97943 38861 ft 500 kts 68°
2026-05-08 06:41 52.07236 -175.87446 38860 ft 500 kts 68°
2026-05-08 06:41 52.09804 -175.76959 38859 ft 499 kts 68°
2026-05-08 06:42 52.12365 -175.66454 38861 ft 499 kts 68°
2026-05-08 06:42 52.14910 -175.55959 38861 ft 499 kts 68°
2026-05-08 06:43 52.17430 -175.45519 38859 ft 498 kts 68°
2026-05-08 06:43 52.19957 -175.35003 38853 ft 498 kts 69°
2026-05-08 06:44 52.22488 -175.24416 38854 ft 497 kts 69°
2026-05-08 06:44 52.24971 -175.13980 38853 ft 497 kts 69°
2026-05-08 06:45 52.27460 -175.03463 38853 ft 496 kts 69°
2026-05-08 06:45 52.29938 -174.92948 38854 ft 496 kts 69°
2026-05-08 06:46 52.32405 -174.82423 38851 ft 496 kts 69°
2026-05-08 06:46 52.34864 -174.71884 38858 ft 496 kts 69°
2026-05-08 06:47 52.37307 -174.61360 38866 ft 495 kts 69°
2026-05-08 06:47 52.39742 -174.50821 38874 ft 494 kts 69°
2026-05-08 06:48 52.42164 -174.40286 38879 ft 494 kts 69°
2026-05-08 06:48 52.44573 -174.29751 38880 ft 493 kts 70°
2026-05-08 06:49 52.46969 -174.19226 38876 ft 493 kts 70°
2026-05-08 06:49 52.49354 -174.08693 38875 ft 492 kts 70°
2026-05-08 06:50 52.51724 -173.98175 38876 ft 491 kts 70°
2026-05-08 06:50 52.54082 -173.87660 38874 ft 491 kts 70°
2026-05-08 06:51 52.56412 -173.77209 38879 ft 490 kts 70°
2026-05-08 06:51 52.58749 -173.66681 38879 ft 490 kts 70°
2026-05-08 06:52 52.61073 -173.56159 38880 ft 489 kts 70°
2026-05-08 06:52 52.63384 -173.45639 38882 ft 489 kts 70°
2026-05-08 06:53 52.65687 -173.35105 38885 ft 488 kts 70°
2026-05-08 06:53 52.67975 -173.24585 38889 ft 487 kts 71°
2026-05-08 06:54 52.70250 -173.14067 38892 ft 487 kts 71°
2026-05-08 06:54 52.72516 -173.03542 38894 ft 487 kts 71°
2026-05-08 06:55 52.74770 -172.93015 38897 ft 486 kts 71°
2026-05-08 06:55 52.77015 -172.82478 38898 ft 486 kts 71°
2026-05-08 06:56 52.79250 -172.71934 38901 ft 486 kts 71°
2026-05-08 06:56 52.81471 -172.61398 38902 ft 486 kts 71°
2026-05-08 06:57 52.83685 -172.50840 38908 ft 486 kts 71°
2026-05-08 06:57 52.85889 -172.40278 38908 ft 486 kts 71°
2026-05-08 06:58 52.88086 -172.29694 38910 ft 486 kts 71°
2026-05-08 06:58 52.90272 -172.19104 38911 ft 486 kts 71°
2026-05-08 06:59 52.92449 -172.08502 38914 ft 486 kts 71°
2026-05-08 06:59 52.94618 -171.97883 38914 ft 486 kts 71°
2026-05-08 07:00 52.96763 -171.87324 38917 ft 486 kts 72°
2026-05-08 07:00 52.98927 -171.76615 38921 ft 486 kts 72°
2026-05-08 07:01 53.01053 -171.66032 38920 ft 487 kts 72°
2026-05-08 07:01 53.03187 -171.55356 38920 ft 487 kts 72°
2026-05-08 07:02 53.05309 -171.44679 38925 ft 486 kts 72°
2026-05-08 07:02 53.07420 -171.34000 38926 ft 487 kts 72°
2026-05-08 07:03 53.09524 -171.23300 38928 ft 486 kts 72°
2026-05-08 07:03 53.11617 -171.12594 38929 ft 486 kts 72°
2026-05-08 07:04 53.13701 -171.01875 38932 ft 487 kts 72°